Weather Roundup
Issued by NWS

Home | Current Version | Previous Version | Graphics & Text | Print | Product List | Glossary Off
Versions: 1 2 3 4 5 6 7 8 9 10 11 12 13 14 15 16 17 18 19 20 21 22 23 24 25 26 27 28 29 30 31 32 33 34 35 36 37 38 39 40 41 42 43 44 45 46 47 48 49 50

278
NZUS93 KARX 232010
HRRWXR

CURRENT HOURLY OBSERVATIONS ACROSS
MUCH OF THE UPPER MISSISSIPPI VALLEY
NATIONAL WEATHER SERVICE LA CROSSE WI
300 PM CDT MON APR 23 2018


...SOUTHEAST MINNESOTA...


CITY           SKY/WX    TMP DP  RH WIND       PRES   REMARKS
ROCHESTER      FAIR      65  37  35 MISG      30.17F
ROCHESTER/MAYO FAIR      68  32  26 NE6       30.17F
WINONA         FAIR      70  30  23 SE5       30.14F
AUSTIN         FAIR      64  37  36 E5        30.17F
ALBERT LEA     FAIR      63  36  36 N6        30.17F
DODGE CENTER   FAIR      64  37  36 N7        30.18S
PRESTON        FAIR      64  30  28 NE5       30.17F
OWATONNA       FAIR      66  39  37 NW8       30.17F
FARIBAULT      NOT AVBL
$$

...ELSEWHERE IN MINNESOTA...


CITY           SKY/WX    TMP DP  RH WIND       PRES   REMARKS
MINNEAPOLIS    FAIR      69  35  28 NW5       30.16F
INTNL FALLS    FAIR      64  33  31 NW15G22   30.12F
DULUTH         FAIR      66  38  35 W8        30.14F
RED WING       FAIR      70  25  18 S5        30.16F
REDWOOD FALLS  SUNNY     66  36  32 VRB3      30.16F
MANKATO        FAIR      65  39  38 VRB3      30.17F
WORTHINGTON    SUNNY     63  38  39 E6        30.18
FAIRMONT       SUNNY     61  41  47 N3        30.18F
$$

...SOUTHWEST WISCONSIN...


CITY           SKY/WX    TMP DP  RH WIND       PRES   REMARKS
LA CROSSE      FAIR      68  28  22 NW8       30.15F
PRAIRIE DU CHI FAIR      68  20  16 N3        30.13F
BOSCOBEL       FAIR      71  26  18 VRB6      30.14F
LONE ROCK      FAIR      68  28  22 NE10      30.14F
PLATTEVILLE    FAIR      67  26  20 NE13G18   30.14F
FORT MC COY    FAIR      67  25  20 E3        30.17F
MAUSTON-NEW LI FAIR     N/A N/A N/A NE5       30.16F
VIROQUA        FAIR      64  33  30 N8        30.16F
WIS DELLS      FAIR      65  25  22 NE9       30.16F
$$

...ELSEWHERE IN WISCONSIN...


CITY           SKY/WX    TMP DP  RH WIND       PRES   REMARKS
MILWAUKEE      PTSUNNY   59  30  33 N13       30.17F
MADISON        PTSUNNY   66  25  21 E9        30.15F
GREEN BAY      FAIR      62  29  28 NE6       30.19F
EAU CLAIRE     FAIR      67  30  25 E3        30.16F
BLACK RVR FLS  FAIR      71  15  12 S5        30.16F
MEDFORD        FAIR      58  33  37 CALM      30.19F
WAUSAU         FAIR      63  23  21 SW3       30.17F
WIS RAPIDS     FAIR      65  27  23 E6        30.18F
MARSHFIELD     FAIR      62  25  24 E7        30.18F
RICE LAKE      FAIR      62  31  31 CALM      30.20F
$$

...NORTHEAST IOWA...


CITY           SKY/WX    TMP DP  RH WIND       PRES   REMARKS
WATERLOO       FAIR      70  30  22 E7        30.12F
DUBUQUE        FAIR      67  24  19 NE13G18   30.12F
DECORAH        FAIR      66  27  22 VRB5G13   30.14F
MASON CITY     SUNNY     65  40  39 NE8       30.17F
CHARLES CITY   FAIR      66  32  28 E9G15     30.16F
OELWEIN        FAIR      68  28  22 N8G15     30.13F
$$

...ELSEWHERE IN IOWA...


CITY           SKY/WX    TMP DP  RH WIND       PRES   REMARKS
DES MOINES     MOSUNNY   72  30  21 NE14      30.11F
IOWA CITY      FAIR      70  22  16 NE16      30.10F
FORT DODGE     SUNNY     68  34  28 VRB6      30.15F
MARSHALLTOWN   SUNNY     71  30  21 E15G24    30.10F
CEDAR RAPIDS   FAIR      72  25  17 E15       30.10F
$$

...NORTHERN ILLINOIS...


CITY           SKY/WX    TMP DP  RH WIND       PRES   REMARKS
CHICAGO-OHARE  PTSUNNY   61  30  31 NE17      30.11F
CHICAGO-MIDWAY PTSUNNY   62  33  33 NE13      30.11F
MOLINE         FAIR      74  33  22 NE15      30.06F
ROCKFORD       PTSUNNY   70  30  22 NE15      30.12F
PEORIA         PTSUNNY   69  37  30 NE13      30.05S
$$

NOTE: "FAIR" INDICATES FEW OR NO CLOUDS BELOW 12,000 FEET WITH NO
SIGNIFICANT WEATHER AND/OR OBSTRUCTIONS TO VISIBILITY. WIND
SPEEDS ARE IN MILES-PER-HOUR.




USA.gov is the U.S. government's official web portal to all federal, state and local government web resources and services.